DW5212 Weather Reports


time (UTC)temp
F
wind
direction
speed
knots
gust
knots
rain 1hr
in
rain 24hr
in
rain mn
in
humidity
%
barometer
mb
20260906114503 74 215 0.0 0.0 0.00 0.00 0.00 94 1013.7
20260906114005 74 215 0.0 0.0 0.00 0.00 0.00 94 1013.6
20260906113503 74 215 0.0 0.0 0.00 0.00 0.00 94 1013.7
20260906113006 74 215 0.0 0.0 0.00 0.00 0.00 94 1013.5
20260906112504 74 215 0.0 1.7 0.00 0.00 0.00 94 1013.4
20260906111505 74 232 0.0 0.0 0.00 0.00 0.00 94 1013.3
20260906111005 74 232 0.0 0.0 0.00 0.00 0.00 94 1013.2
20260906110504 74 232 0.0 0.0 0.00 0.00 0.00 94 1013.1
20260906110007 74 232 0.0 0.0 0.00 0.00 0.00 94 1013.1
20260906105503 74 232 0.0 0.0 0.00 0.00 0.00 93 1013.1
20260906104504 75 232 0.0 0.0 0.00 0.00 0.00 93 1013.1
20260906104004 75 232 0.0 0.0 0.00 0.00 0.00 93 1013.1
20260906103503 75 232 0.0 0.0 0.00 0.00 0.00 93 1013.0
20260906103005 75 232 0.0 0.0 0.00 0.00 0.00 93 1013.1
20260906102503 75 232 0.0 0.0 0.00 0.00 0.00 93 1013.0
20260906102004 75 232 0.0 0.0 0.00 0.00 0.00 93 1013.0
20260906101503 75 232 0.0 0.0 0.00 0.00 0.00 93 1012.9
20260906101006 75 232 0.0 0.0 0.00 0.00 0.00 93 1012.9
20260906100504 75 232 0.0 0.0 0.00 0.00 0.00 93 1013.0
20260906100008 75 232 0.0 0.0 0.00 0.00 0.00 93 1013.0
20260906095503 75 232 0.0 0.0 0.00 0.00 0.00 93 1013.2
20260906095004 75 232 0.0 0.0 0.00 0.00 0.00 92 1013.2
20260906094503 75 232 0.0 0.0 0.00 0.00 0.00 92 1013.2
20260906093504 75 232 0.0 0.0 0.00 0.00 0.00 93 1013.1
20260906093006 75 232 0.0 0.0 0.00 0.00 0.00 92 1012.9
20260906092503 75 232 0.0 0.0 0.00 0.00 0.00 92 1012.8
20260906092004 75 232 0.0 0.0 0.00 0.00 0.00 92 1012.7
20260906091505 75 232 0.0 0.0 0.00 0.00 0.00 93 1012.8
20260906091004 75 232 0.0 0.0 0.00 0.00 0.00 92 1012.8
20260906090503 75 232 0.0 0.0 0.00 0.00 0.00 92 1012.7
20260906090007 75 232 0.0 0.0 0.00 0.00 0.00 92 1012.7
20260906085503 75 232 0.0 0.0 0.00 0.00 0.00 93 1012.6
20260906085003 75 232 0.0 0.0 0.00 0.00 0.00 93 1012.5
20260906084504 75 232 0.0 0.0 0.00 0.00 0.00 93 1012.4
20260906084004 75 232 0.0 0.0 0.00 0.00 0.00 93 1012.5
20260906083503 75 232 0.0 0.0 0.00 0.00 0.00 92 1012.4
20260906083004 75 232 0.0 0.0 0.00 0.00 0.00 92 1012.5
20260906082504 75 232 0.0 0.0 0.00 0.00 0.00 92 1012.5
20260906082004 75 232 0.0 0.0 0.00 0.00 0.00 92 1012.5
20260906081503 75 232 0.0 0.0 0.00 0.00 0.00 92 1012.3
20260906081003 75 232 0.0 0.0 0.00 0.00 0.00 92 1012.2
20260906080503 75 232 0.0 0.0 0.00 0.00 0.00 92 1012.3
20260906080007 75 232 0.0 0.0 0.00 0.00 0.00 92 1012.3
20260906075502 75 232 0.0 0.0 0.00 0.00 0.00 92 1012.3
20260906075003 75 232 0.0 0.0 0.00 0.00 0.00 92 1012.3
20260906074503 75 232 0.0 0.9 0.00 0.00 0.00 92 1012.4
20260906074003 75 232 0.0 0.9 0.00 0.00 0.00 92 1012.5
20260906073503 75 232 0.0 0.0 0.00 0.00 0.00 91 1012.6
20260906073004 75 232 0.0 0.0 0.00 0.00 0.00 91 1012.6
20260906072003 75 232 0.0 0.0 0.00 0.00 0.00 91 1012.6
20260906071503 75 232 0.0 0.0 0.00 0.00 0.00 91 1012.5
20260906071004 75 232 0.0 0.0 0.00 0.00 0.00 91 1012.3
20260906070502 75 232 0.0 0.0 0.00 0.00 0.00 91 1012.3
20260906070004 75 232 0.0 0.0 0.00 0.00 0.00 91 1012.3
20260906065003 75 232 0.0 0.0 0.00 0.00 0.00 91 1012.3
20260906064503 75 232 0.0 0.0 0.00 0.00 0.00 91 1012.2
20260906064004 75 232 0.0 0.0 0.00 0.00 0.00 91 1012.2
20260906063503 75 232 0.0 0.0 0.00 0.00 0.00 91 1012.2
20260906063004 75 232 0.0 0.0 0.00 0.00 0.00 91 1012.3
20260906062502 75 232 0.0 0.0 0.00 0.00 0.00 91 1012.4
20260906062005 75 232 0.0 0.0 0.00 0.00 0.00 91 1012.5
20260906061503 75 232 0.0 0.0 0.00 0.00 0.00 91 1012.3
20260906061003 75 232 0.0 0.0 0.00 0.00 0.00 91 1012.3
20260906060503 75 232 0.0 0.0 0.00 0.00 0.00 90 1012.3
20260906055503 75 232 0.0 0.0 0.00 0.00 0.00 90 1012.4
20260906054005 75 232 0.0 0.9 0.00 0.00 0.00 90 1012.3
20260906053503 75 232 0.0 0.9 0.00 0.00 0.00 90 1012.3
20260906053005 75 232 0.0 1.7 0.00 0.00 0.00 90 1012.3
20260906052503 75 232 0.0 1.7 0.00 0.00 0.00 90 1012.5
20260906052004 75 232 0.0 0.0 0.00 0.00 0.00 90 1012.5
20260906051505 76 232 0.0 0.0 0.00 0.00 0.00 90 1012.3
20260906051005 76 232 0.0 0.0 0.00 0.00 0.00 90 1012.5
20260906050504 76 232 0.0 0.0 0.00 0.00 0.00 89 1012.3
20260906050011 76 232 0.0 0.0 0.00 0.00 0.00 89 1012.3
20260906045506 76 232 0.0 0.0 0.00 0.00 0.00 90 1012.2
20260906045006 76 232 0.0 0.0 0.00 0.00 0.00 90 1012.1
20260906044506 76 232 0.0 0.0 0.00 0.00 0.00 89 1012.2
20260906044007 76 232 0.0 0.0 0.00 0.00 0.00 89 1012.1
20260906043505 76 232 0.0 0.0 0.00 0.00 0.00 89 1012.1
20260906043007 76 232 0.0 0.9 0.00 0.00 0.00 89 1012.1
20260906042506 76 232 0.0 0.9 0.00 0.00 0.00 89 1012.1
20260906042007 76 232 0.0 0.9 0.00 0.00 0.00 89 1011.9
20260906041506 76 232 0.0 0.9 0.00 0.00 0.00 89 1011.9
20260906041006 76 232 0.0 0.0 0.00 0.00 0.00 89 1011.7
20260906040506 76 232 0.0 0.0 0.00 0.00 0.00 89 1011.7
20260906040008 76 232 0.0 0.0 0.00 0.00 0.00 89 1011.6
20260906035504 76 232 0.0 0.0 0.00 0.00 0.00 89 1011.7
20260906035005 76 232 0.0 0.0 0.00 0.00 0.00 89 1011.8
20260906034504 76 232 0.0 0.0 0.00 0.00 0.00 89 1011.7
20260906034005 76 232 0.0 0.0 0.00 0.00 0.00 89 1011.5
20260906033504 76 232 0.0 0.0 0.00 0.00 0.00 89 1011.5
20260906033004 76 232 0.0 0.0 0.00 0.00 0.00 89 1011.5
20260906032504 76 232 0.0 0.0 0.00 0.00 0.00 89 1011.4
20260906032004 77 232 0.0 0.0 0.00 0.00 0.00 89 1011.4
20260906031504 77 232 0.0 0.0 0.00 0.00 0.00 89 1011.3
20260906025005 78 232 0.0 0.0 0.00 0.00 0.00 87 1011.5
20260906024504 78 232 0.0 0.0 0.00 0.00 0.00 87 1011.5
20260906024004 78 232 0.0 0.0 0.00 0.00 0.00 87 1011.7
20260906023503 78 232 0.0 0.0 0.00 0.00 0.00 87 1011.8
20260906023005 78 232 0.0 0.0 0.00 0.00 0.00 86 1012.0
20260906022004 78 232 0.0 0.0 0.00 0.00 0.00 86 1012.2
20260906021504 78 232 0.0 0.0 0.00 0.00 0.00 86 1012.5
20260906020503 79 232 0.0 0.0 0.00 0.00 0.00 86 1012.5
20260906020007 79 232 0.0 0.0 0.00 0.00 0.00 86 1012.6
20260906015505 79 232 0.0 0.0 0.00 0.00 0.00 85 1012.5
20260906015006 79 232 0.0 0.0 0.00 0.00 0.00 85 1012.5
20260906014506 79 232 0.0 0.0 0.00 0.00 0.00 85 1012.7
20260906014006 79 232 0.0 0.0 0.00 0.00 0.00 85 1012.8
20260906013505 79 232 0.0 1.7 0.00 0.00 0.00 84 1012.9
20260906013007 80 232 0.0 1.7 0.00 0.00 0.00 84 1013.0
20260906012504 80 232 0.0 0.9 0.00 0.00 0.00 84 1013.3
20260906012006 80 232 0.9 3.5 0.00 0.00 0.00 83 1013.2
20260906011506 80 232 0.9 3.5 0.00 0.00 0.00 83 1013.2
20260906011006 80 221 0.9 2.6 0.00 0.00 0.00 83 1013.3
20260906010505 80 264 0.9 2.6 0.00 0.00 0.00 83 1013.1
20260906010006 80 240 0.0 2.6 0.00 0.00 0.00 82 1013.2
20260906005004 80 188 0.9 2.6 0.00 0.00 0.00 81 1013.2
20260906004004 81 211 0.0 1.7 0.00 0.00 0.00 80 1013.2
20260906003503 81 202 0.0 0.0 0.00 0.00 0.00 80 1013.2
20260906003007 81 202 0.0 1.7 0.00 0.00 0.00 79 1012.8
20260906002504 81 213 0.0 1.7 0.00 0.00 0.00 80 1012.7
20260906001505 82 251 0.0 0.0 0.00 0.00 0.00 80 1012.6
20260906001004 82 252 0.0 0.9 0.00 0.00 0.00 80 1012.6
20260906000007 82 169 0.9 2.6 0.00 0.00 0.00 80 1012.6
20260905235503 82 230 0.9 2.6 0.00 0.00 0.00 80 1012.6
20260905234504 82 251 0.0 2.6 0.00 0.00 0.00 80 1012.7
20260905234004 82 255 0.9 2.6 0.00 0.00 0.00 80 1012.6
20260905233503 82 221 0.9 1.7 0.00 0.00 0.00 81 1012.6
20260905233004 82 220 0.9 3.5 0.00 0.00 0.00 81 1012.6
20260905232504 82 208 0.9 3.5 0.00 0.00 0.00 81 1012.6
20260905232004 82 217 0.9 5.2 0.00 0.00 0.00 80 1012.6
20260905231505 82 216 0.9 4.3 0.00 0.00 0.00 80 1012.4
20260905231005 82 182 0.9 3.5 0.00 0.00 0.00 80 1012.2
20260905230503 83 223 1.7 3.5 0.00 0.00 0.00 80 1012.1
20260905230008 83 217 1.7 3.5 0.00 0.00 0.00 79 1012.0
20260905225503 83 221 1.7 4.3 0.00 0.00 0.00 79 1012.0
20260905225004 83 210 1.7 4.3 0.00 0.00 0.00 78 1012.1
20260905224504 83 216 2.6 7.0 0.00 0.00 0.00 77 1012.1
20260905224007 83 157 1.7 7.0 0.00 0.00 0.00 76 1012.1
20260905223503 83 241 1.7 8.7 0.00 0.00 0.00 75 1012.2
20260905222503 84 192 2.6 7.8 0.00 0.00 0.00 73 1012.0
20260905222005 84 284 2.6 9.6 0.00 0.00 0.00 72 1012.0
20260905221004 86 229 3.5 10.4 0.00 0.00 0.00 69 1011.9
20260905220503 87 236 2.6 9.6 0.00 0.00 0.00 68 1011.8
20260905220007 88 228 3.5 9.6 0.00 0.00 0.00 66 1011.9
20260905215503 89 171 4.3 9.6 0.00 0.00 0.00 64 1011.8
20260905215004 91 236 3.5 10.4 0.00 0.00 0.00 61 1011.7
20260905214004 94 38 1.7 7.0 0.00 0.00 0.00 57 1011.3
20260905213503 94 263 1.7 7.0 0.00 0.00 0.00 56 1011.1
20260905213005 94 132 1.7 3.5 0.00 0.00 0.00 55 1011.0
20260905212504 94 77 1.7 5.2 0.00 0.00 0.00 54 1010.9
20260905212004 94 213 1.7 5.2 0.00 0.00 0.00 55 1010.9
20260905210006 93 115 0.9 6.1 0.00 0.00 0.00 58 1011.0
20260905205504 93 24 0.0 2.6 0.00 0.00 0.00 58 1011.0
20260905205004 93 43 0.9 1.7 0.00 0.00 0.00 57 1011.0
20260905204505 94 74 1.7 7.0 0.00 0.00 0.00 56 1011.1
20260905204004 95 52 2.6 7.0 0.00 0.00 0.00 54 1011.1
20260905203503 95 172 1.7 6.1 0.00 0.00 0.00 55 1011.0
20260905203004 94 348 0.9 3.5 0.00 0.00 0.00 55 1011.1
20260905202506 94 28 0.9 3.5 0.00 0.00 0.00 56 1011.1
20260905202005 94 177 0.9 2.6 0.00 0.00 0.00 56 1011.2
20260905201505 95 38 0.9 3.5 0.00 0.00 0.00 55 1011.3
20260905200505 94 77 0.9 2.6 0.00 0.00 0.00 56 1011.3
20260905195504 94 60 1.7 4.3 0.00 0.00 0.00 58 1011.6
20260905195004 93 78 1.7 4.3 0.00 0.00 0.00 58 1011.5
20260905194505 93 72 0.9 4.3 0.00 0.00 0.00 58 1011.8
20260905194004 93 60 0.9 1.7 0.00 0.00 0.00 58 1011.8
20260905193505 94 60 0.0 2.6 0.00 0.00 0.00 57 1011.9
20260905192503 95 105 0.9 4.3 0.00 0.00 0.00 55 1012.0
20260905192004 96 90 0.9 2.6 0.00 0.00 0.00 56 1012.0
20260905191005 95 149 0.9 4.3 0.00 0.00 0.00 56 1012.2
20260905190006 96 173 0.9 5.2 0.00 0.00 0.00 56 1012.1
20260905185504 95 39 0.9 5.2 0.00 0.00 0.00 56 1012.3
20260905185006 95 31 1.7 3.5 0.00 0.00 0.00 58 1012.3
20260905184004 95 169 0.9 7.8 0.00 0.00 0.00 59 1012.6
20260905183505 95 159 0.9 6.1 0.00 0.00 0.00 60 1012.6
20260905183005 95 81 0.9 2.6 0.00 0.00 0.00 58 1012.6
20260905182504 95 10 1.7 3.5 0.00 0.00 0.00 59 1012.7
20260905181506 94 13 1.7 3.5 0.00 0.00 0.00 59 1012.8
20260905181005 93 87 1.7 3.5 0.00 0.00 0.00 60 1012.8
20260905180505 93 117 0.9 2.6 0.00 0.00 0.00 61 1013.0
20260905180006 93 71 0.9 2.6 0.00 0.00 0.00 61 1013.0
20260905175505 93 80 0.9 2.6 0.00 0.00 0.00 60 1013.1
20260905175004 94 55 0.9 4.3 0.00 0.00 0.00 60 1013.1
20260905174505 93 319 0.9 4.3 0.00 0.00 0.00 61 1013.2
20260905174003 93 87 0.9 3.5 0.00 0.00 0.00 61 1013.1
20260905173504 93 32 0.9 2.6 0.00 0.00 0.00 61 1013.3
20260905173006 93 61 0.0 0.9 0.00 0.00 0.00 62 1013.5
20260905172505 93 32 0.9 2.6 0.00 0.00 0.00 63 1013.4
20260905172004 93 13 0.9 2.6 0.00 0.00 0.00 63 1013.5
20260905171005 92 185 0.9 2.6 0.00 0.00 0.00 65 1013.7
20260905170504 92 229 0.9 2.6 0.00 0.00 0.00 68 1013.8
20260905170006 91 275 0.9 2.6 0.00 0.00 0.00 67 1014.0
20260905165004 91 185 0.0 2.6 0.00 0.00 0.00 70 1014.0
20260905164505 90 28 0.9 2.6 0.00 0.00 0.00 70 1014.0
20260905164004 90 108 0.9 2.6 0.00 0.00 0.00 71 1014.1
20260905163503 89 36 0.0 2.6 0.00 0.00 0.00 70 1014.1
20260905163004 90 355 0.0 0.9 0.00 0.00 0.00 70 1014.1
20260905162004 91 355 0.0 1.7 0.00 0.00 0.00 68 1014.2
20260905161004 91 95 0.0 0.0 0.00 0.00 0.00 69 1014.2
20260905160504 91 130 0.0 0.0 0.00 0.00 0.00 70 1014.2
20260905155504 90 329 0.0 0.0 0.00 0.00 0.00 71 1014.2
20260905155006 89 24 0.0 1.7 0.00 0.00 0.00 73 1014.3
20260905154506 89 63 0.9 2.6 0.00 0.00 0.00 74 1014.3
20260905154006 88 63 0.0 2.6 0.00 0.00 0.00 74 1014.3
20260905153005 88 51 0.0 0.0 0.00 0.00 0.00 75 1014.2
20260905152505 88 167 0.0 0.0 0.00 0.00 0.00 75 1014.2
20260905152005 87 167 0.0 0.0 0.00 0.00 0.00 76 1014.3
20260905151505 87 215 0.0 0.0 0.00 0.00 0.00 76 1014.3
20260905151004 86 215 0.0 0.0 0.00 0.00 0.00 77 1014.3
20260905150503 86 215 0.0 0.0 0.00 0.00 0.00 77 1014.4
20260905150006 86 215 0.0 0.0 0.00 0.00 0.00 78 1014.4
20260905145503 86 212 0.0 0.0 0.00 0.00 0.00 79 1014.3
20260905145004 85 110 0.0 0.0 0.00 0.00 0.00 79 1014.3
20260905144503 84 111 0.0 0.9 0.00 0.00 0.00 81 1014.4
20260905144004 84 128 0.0 1.7 0.00 0.00 0.00 81 1014.4
20260905143504 83 128 0.0 1.7 0.00 0.00 0.00 82 1014.3
20260905143005 82 128 0.9 1.7 0.00 0.00 0.00 84 1014.4
20260905142005 81 127 0.0 3.5 0.00 0.00 0.00 86 1014.3
20260905141004 79 129 0.0 2.6 0.00 0.00 0.00 88 1014.3
20260905140503 79 145 0.9 2.6 0.00 0.00 0.00 89 1014.3
20260905140006 79 185 0.9 2.6 0.00 0.00 0.00 89 1014.4
20260905135503 78 133 0.0 0.9 0.00 0.00 0.00 90 1014.4
20260905135004 78 133 0.0 0.9 0.00 0.00 0.00 91 1014.4
20260905134503 78 133 0.0 1.7 0.00 0.00 0.00 91 1014.5
20260905134003 77 132 0.0 0.9 0.00 0.00 0.00 91 1014.6
20260905133004 77 110 0.0 0.0 0.00 0.00 0.00 92 1014.6
20260905132003 76 110 0.0 0.0 0.00 0.00 0.00 92 1014.5
20260905131503 76 110 0.0 0.0 0.00 0.00 0.00 93 1014.5
20260905130502 76 110 0.0 0.0 0.00 0.00 0.00 93 1014.4
20260905130004 75 110 0.0 0.0 0.00 0.00 0.00 93 1014.5
20260905125504 75 110 0.0 0.0 0.00 0.00 0.00 93 1014.5
20260905125004 75 110 0.0 0.0 0.00 0.00 0.00 93 1014.4
20260905124004 75 110 0.0 0.0 0.00 0.00 0.00 93 1014.4
20260905123503 75 110 0.0 0.0 0.00 0.00 0.00 93 1014.2
20260905123006 75 110 0.0 0.0 0.00 0.00 0.00 93 1014.2
20260905122004 74 110 0.0 0.0 0.00 0.00 0.00 93 1014.1
20260905121503 74 111 0.0 0.0 0.00 0.00 0.00 93 1014.1
20260905121005 74 111 0.0 0.0 0.00 0.00 0.00 93 1014.1
20260905120504 74 110 0.0 0.0 0.00 0.00 0.00 93 1014.1
20260905120005 74 111 0.0 0.0 0.00 0.00 0.00 93 1013.9
20260905115503 74 111 0.0 0.0 0.00 0.00 0.00 93 1013.8
20260905115003 74 110 0.0 0.0 0.00 0.00 0.00 93 1013.8